www.pogodaiklimat.ru

Погода и климат >> Архив погоды >> Вьетнам >> Ратьзя


ПОГОДА в Ратьзя

  • Прогноз погоды в Ратьзя
  • Монитор погоды в Ратьзя

АРХИВ ПОГОДЫ в Ратьзя

Время (UTC), дата Ветер
(напр.,м/с)
 
Видим.   Явления Облачность Т
(С)
Тd
(С)
f
(%)
Тe
(С)
Тes
(С)
Комфортность P
(гПа)
Po
(гПа)
Тmin
(С)
Tmax
(С)
R
(мм)
R24
(мм)
S
(см)
21 10.06 З 3 4000 м слаб. ливневой дождь {гроза} 10/10 600 м
[Cb cap]
+26.0 +25.1 95 +37 +37 очень
душно
1009.3 1009.0
00 11.06 З 3 10 км слаб. ливневой дождь {гроза} 10/10 600 м
[Cb cap]
+27.0 +24.7 87 +38 +38 очень
душно
1010.6 1010.3 +24.2 29
03 11.06 ЮЗ 5 10 км в посл. час дождь 10/10 300 м
[Cb cap]
+28.0 +26.3 91 +43 +43 опасность
перегрева
1010.8 1010.5
06 11.06 З 4 20 км в посл. час дождь 9/9 600 м
[Cb cap]
+30.2 +26.3 80 +46 +47 опасность
перегрева
1008.8 1008.5 0.8
09 11.06 З 5 20 км 8/8 600 м
[Cb cap]
+30.4 +26.2 78 +46 +46 опасность
перегрева
1006.9 1006.6
12 11.06 З 3 20 км 9/3
[Cu med, cong Cs]
+29.2 +25.8 82 +44 +44 опасность
перегрева
1008.2 1007.9 +30.5 30
15 11.06 Ю 2 20 км 5/5 600 м
[Cu med, cong]
+29.0 +26.2 85 +44 +44 опасность
перегрева
1009.5 1009.2
21 11.06 ЮЗ 1 20 км 8/3 600 м
[Cu med, cong Cs]
+28.7 +26.9 90 +45 +45 опасность
перегрева
1008.0 1007.7
00 12.06 З 4 10 км слаб. ливневой дождь 8/8
[Cb cap]
+28.8 +25.5 82 +42 +43 опасность
перегрева
1009.3 1009.0 +28.4 0.0
03 12.06 ЮЗ 3 4000 м гроза, ливневой дождь 10/10 600 м
[Cb cap]
+26.0 +25.1 95 +37 +37 очень
душно
1011.0 1010.7
06 12.06 З 1 10 км в посл. час ливневой дождь {гроза} 8/8 300 м
[Cb cap]
+28.4 +26.8 91 +44 +49 опасность
перегрева
1009.2 1008.9 45
09 12.06 З 5 20 км {ливн. осадки} 6/4 600 м
[Cb cap Ac trans Ci fib]
+31.1 +26.6 77 +48 +49 опасность
перегрева
1007.2 1006.9
12 12.06 З 4 20 км {ливн. осадки} 9/9 600 м
[Cb cap]
+29.4 +26.3 83 +45 +45 опасность
перегрева
1008.0 1007.7 +31.2 45
15 12.06 З 3 20 км 6/6 600 м
[Cu Sc]
+29.4 +26.6 85 +45 +45 опасность
перегрева
1009.8 1009.5
18 12.06 ЮЗ 3 20 км 8/8 1000 м
[Sc]
+29.3 +26.8 86 +46 +46 опасность
перегрева
1008.7 1008.4
21 12.06 ЮЗ 2 20 км 9/9 600 м
[Cu Sc]
+29.0 +27.2 90 +46 +46 опасность
перегрева
1007.8 1007.5
00 13.06 ЮЗ 2 20 км 9/1 600 м
[Cu med, cong Cs]
+29.7 +27.0 85 +47 +48 опасность
перегрева
1009.2 1008.9 +28.5
03 13.06 ЮЗ 4 20 км 9/4 600 м
[Cu med, cong Cs]
+32.0 +27.3 76 +50 +56 опасность
перегрева
1009.8 1009.5
06 13.06 З 4 20 км 9/4 600 м
[Cb cap Cs]
+32.8 +27.0 72 +51 +58 опасность
перегрева
1008.2 1007.9
09 13.06 З 5 10 км слаб. ливневой дождь {гроза} 9/9 300 м
[Cb cap]
+27.8 +24.6 83 +39 +40 очень
душно
1007.1 1006.8 0.7
12 13.06 З 4 20 км {гроза, ливн. осадки} 9/9 600 м
[Cu Sc]
+29.7 +26.0 81 +45 +45 опасность
перегрева
1008.6 1008.3 +32.9 0.8
15 13.06 З 4 20 км 9/9 300 м
[Cb cap]
+30.0 +26.6 82 +46 +46 опасность
перегрева
1010.9 1010.6
18 13.06 ЮЗ 3 10 км слаб. ливневой дождь {гроза} 9/9 600 м
[Cb cap]
+29.6 +26.6 84 +46 +46 опасность
перегрева
1009.1 1008.8 0.0
21 13.06 ЮЗ 5 10 км 9/9 600 м
[Cu Sc]
+29.5 +26.7 85 +46 +46 опасность
перегрева
1007.3 1007.0
00 14.06 ЮЗ 3 20 км 9/9 600 м
[Cu Sc]
+29.0 +27.0 89 +46 +46 опасность
перегрева
1009.0 1008.8 +28.4 0.0
03 14.06 СЗ 3 20 км 8/8 600 м
[Cu Sc]
+28.2 +24.4 80 +40 +42 очень
душно
1010.5 1010.2
06 14.06 З 3 20 км 9/9 600 м
[Cu Sc]
+29.4 +24.5 75 +42 +43 опасность
перегрева
1008.4 1008.1 0.0
09 14.06 З 3 20 км 9/9 300 м
[Cu med, cong]
+30.0 +25.3 76 +44 +44 опасность
перегрева
1006.8 1006.5
12 14.06 З 4 20 км 8/8 1500 м
[Sc]
+29.7 +25.9 80 +44 +44 опасность
перегрева
1007.7 1007.4 +30.8 0.0
18 14.06 ЮЗ 3 20 км 6/6 600 м
[Cu med, cong]
+29.4 +26.6 85 +45 +45 опасность
перегрева
1008.8 1008.5
00 15.06 ЮЗ 2 20 км 9/3 600 м
[Cu med, cong Cs]
+29.8 +27.1 85 +47 +48 опасность
перегрева
1009.1 1008.8 +27.6
06 15.06 З 7 10 км слаб. ливневой дождь 10/10 300 м
[Cb cap]
+27.7 +25.0 85 +40 +40 очень
душно
1009.6 1009.3 2
12 15.06 З 4 20 км {ливн. осадки} 9/9 300 м
[Cu Sc]
+28.8 +25.1 80 +42 +42 опасность
перегрева
1007.9 1007.6 +30.5 4
18 15.06 З 4 20 км 8/8 600 м
[Cb cap]
+29.2 +26.9 87 +46 +46 опасность
перегрева
1008.7 1008.4
00 16.06 З 2 20 км {ливн. осадки} 9/9 600 м
[Cu Sc]
+29.8 +28.4 92 +50 +50 опасность
перегрева
1008.8 1008.5 +28.2 0.0
06 16.06 З 5 20 км 9/8 600 м
[Cu Sc Ac trans Ci fib]
+32.2 +27.8 78 +52 +54 опасность
перегрева
1008.0 1007.7 0.0
12 16.06 З 5 10 км слаб. дождь {гроза} 10/10 300 м
[Cb cap]
+28.7 +26.6 88 +44 +44 опасность
перегрева
1008.1 1007.8 +32.5 13
18 16.06 Ю 2 10 км {дождь} 9/9 600 м
[Cu Sc]
+28.3 +27.0 93 +45 +45 опасность
перегрева
1008.9 1008.6 0.2
00 17.06 З 5 4000 м ливневой дождь 10/10 300 м
[Cb cap]
+25.5 +25.0 97 +36 +36 очень
душно
1009.9 1009.6 +25.1 16
06 17.06 З 4 20 км в посл. час ливневой дождь 9/9 600 м
[Cb cap]
+28.3 +25.0 82 +41 +42 опасность
перегрева
1008.7 1008.4 2
09 17.06 З 4 20 км {ливн. осадки} 9/9 600 м
[Cb cap]
+29.2 +25.2 79 +42 +43 опасность
перегрева
1007.8 1007.5
12 17.06 З 8 10 км слаб. ливневой дождь 10/10 300 м
[Cb cap]
+27.4 +25.4 89 +40 +40 очень
душно
1008.6 1008.3 +29.2 2
15 17.06 З 5 10 км {ливн. осадки} 9/9 300 м
[Cu Sc]
+27.8 +24.9 84 +40 +40 очень
душно
1010.5 1010.2
18 17.06 З 4 20 км {ливн. осадки} 6/6 600 м
[Cu med, cong]
+27.8 +25.2 86 +40 +40 очень
душно
1009.5 1009.2 0.1

 

Местоположение метеостанции Ратьзя (Вьетнам): широта 10.00 долгота 105.08 высота над уровнем моря 3 м.

В архиве по умолчанию представлена погода в Ратьзя за последнюю неделю. Архивные данные за месяц целиком и за предыдущие месяцы, начиная с января 2011 года, Вы можете получить, выбрав интересующий диапазон дат из раскрывающегося списка и нажав кнопку "Ввод!".


*Определитесь, кто Вы:
робот инопланетянин человек

Внимание! Время в таблицах - всемирное. Для получения местного времени необходимо прибавить поправку, которая равна 7 ч.

Смотрите также архив погоды в соседних городах и на ближайших метеорологических станциях:

Погода в Камау (Вьетнам) (92 км)
Погода на Фукуоке (Вьетнам) (125 км)
Погода в Хабе (Вьетнам) (193 км)
Погода на Тхочу (Вьетнам) (195 км)
Погода в Коншоне (Вьетнам) (222 км)
Погода в Клонг Яй (Таиланд) (311 км)
Погода в Фантхьете (Вьетнам) (346 км)
Погода в Фхлю Агромете (Таиланд) (422 км)
Погода в Чантабури (Таиланд) (434 км)
Погода в Буонметхуоте (Вьетнам) (443 км)

Пояснения к столбцам:

Ветер - указаны скорость ветра в м/с - средняя за 10 мин, порывы в срок и между сроками (в фигурных скобках) и направление, откуда дует ветер: С - северный, СВ - северо-восточный, В - восточный, ЮВ - юго-восточный, Ю - южный, ЮЗ - юго-западный, З - западный, СЗ - северо-западный.
Видимость - горизонтальная дальность видимости в метрах или километрах. При видимости от 1 до 10 км при отсутствии осадков обычно наблюдается дымка, при ухудшении видимости до 1 км и менее - туман. В сухую погоду видимость может ухудшаться дымом, пылью или мглою.
Явления - указаны атмосферные явления, наблюдавшиеся в срок или в последний час перед сроком; фигурными скобками обозначены явления, наблюдавшиеся между сроками (за 1-3 часа до срока); квадратными скобками обозначены град или гололедные отложения с указанием их диаметра в мм.
Облачность - указаны через наклонную черту общая и нижняя облачность в баллах и высота нижней границы облаков в метрах; квадратными скобками обозначены формы облаков: Ci - перистые, Cs - перисто-слоистые, Cc - перисто-кучевые, Ac - высококучевые, As - высокослоистые, Sc - слоисто-кучевые, Ns - слоисто-дождевые, Cu - кучевые, Cb - кучево-дождевые. Подробнее классификацию облаков см. в Атласе облаков (PDF).
T - Температура воздуха - температура, измеренная на высоте 2 м над землей.
Td - Температура точки росы - температура, при понижении до которой содержащийся в воздухе водяной пар достигнет насыщения.
f - Относительная влажность воздуха - влажноcть воздуха, измеренная на высоте 2 м над землей.
Te - Эффективная температура - температура, которую ощущает одетый по сезону человек в тени. Характеристика душности погоды. При расчете учитывается влияние влажности воздуха и скорости ветра на теплоощущения человека.
Tes - Эффективная температура на солнце - температура, которую ощущает человек, с поправкой на солнечный нагрев. Характеристика знойности погоды. Зависит от высоты солнца над горизонтом, облачности и скорости ветра. Ночью, в пасмурную погоду, а также при ветре 12 м/с и более поправка равна нулю.
P - Атмосферное давление - приведенное к уровню моря атмосферное давление.
Po - Атмосферное давление - измеренное на уровне метеостанции атмосферное давление.
Tmin - Минимальная температура - минимум температуры воздуха на высоте 2 м над землей.
Tmax - Максимальная температура - максимум температуры воздуха на высоте 2 м над землей.
R - Количество осадков - Количество выпавших осадков за период времени, мм. При наведении курсора мыши на число - период времени, за который выпало указанное количество осадков.
R24 - Количество осадков - Количество выпавших осадков за 24 часа, мм.
S - Снежный покров - Высота снежного покрова, см. При наведении курсора мыши на число - состояние снежного покрова и степень покрытия местности в баллах.